Terminal Aerodrome Forecast
Issued by NWS Tulsa, OK

Home | Current Version | Previous Version | Text Only | Print | Product List | Glossary On
Versions: 1 2 3 4 5 6 7 8 9 10 11 12 13
000
FTUS44 KTSA 281120
TAFTUL
TAF
KTUL 281120Z 2812/2912 17008KT P6SM SKC
     FM281500 19013G20KT P6SM SCT060
     FM290100 17007KT P6SM SKC=

USA.gov is the U.S. government's official web portal to all federal, state and local government web resources and services.